DM3DP Weather Reports


time (UTC)temp
C
wind
direction
speed
KPH
gust
KPH
rain 1hr
cm
rain 24hr
cm
rain mn
cm
humidity
%
barometer
mb
20260507055651 9 87 3.2 6.4 0.00 0.33 0.00 99 1011.7
20260507055121 9 198 3.2 6.4 0.00 0.33 0.00 99 1011.7
20260507054551 9 201 3.2 8.0 0.00 0.33 0.00 99 1011.7
20260507054021 8 340 4.8 11.3 0.03 0.33 0.00 99 1011.5
20260507053451 8 201 3.2 8.0 0.03 0.33 0.00 99 1011.4
20260507052922 8 326 3.2 9.7 0.03 0.33 0.00 99 1011.4
20260507052351 8 337 1.6 3.2 0.03 0.36 0.00 99 1011.2
20260507051822 8 335 1.6 4.8 0.03 0.36 0.00 99 1011.2
20260507051251 8 337 1.6 3.2 0.03 0.36 0.00 99 1011.2
20260507050721 8 341 3.2 4.8 0.03 0.36 0.00 99 1011.1
20260507050151 8 182 1.6 3.2 0.03 0.36 0.00 99 1011.1
20260507045621 8 161 1.6 3.2 0.03 0.36 0.00 99 1011.0
20260507045051 8 182 1.6 3.2 0.03 0.36 0.00 99 1011.0
20260507044522 8 187 1.6 3.2 0.03 0.38 0.00 99 1010.9
20260507043951 8 178 1.6 3.2 0.00 0.36 0.00 99 1010.7
20260507043421 8 178 1.6 3.2 0.00 0.36 0.00 99 1010.7
20260507042852 8 204 3.2 8.0 0.00 0.36 0.00 99 1010.7
20260507042321 8 180 1.6 3.2 0.00 0.36 0.00 99 1010.6
20260507041751 8 191 3.2 4.8 0.00 0.36 0.00 99 1010.6
20260507041222 8 322 1.6 3.2 0.00 0.36 0.00 99 1010.6
20260507040651 8 322 1.6 1.6 0.00 0.36 0.00 99 1010.6
20260507040121 8 178 1.6 1.6 0.00 0.38 0.00 99 1010.6
20260507035551 8 356 1.6 1.6 0.00 0.38 0.00 99 1010.5
20260507035021 8 180 0.0 1.6 0.00 0.38 0.00 99 1010.5
20260507034451 8 186 1.6 4.8 0.00 0.38 0.00 99 1010.5
20260507033921 8 195 1.6 3.2 0.00 0.38 0.00 99 1010.5
20260507033352 8 184 3.2 3.2 0.00 0.41 0.00 99 1010.5
20260507032821 8 182 3.2 6.4 0.00 0.41 0.00 99 1010.4
20260507032252 8 175 3.2 6.4 0.00 0.41 0.00 99 1010.3
20260507031721 8 178 3.2 3.2 0.00 0.41 0.00 99 1010.3
20260507031151 8 180 3.2 8.0 0.00 0.41 0.00 99 1010.3
20260507030621 8 182 3.2 6.4 0.00 0.41 0.00 99 1010.3
20260507030051 8 197 3.2 8.0 0.00 0.41 0.00 99 1010.3
20260507025521 8 356 3.2 4.8 0.00 0.43 0.00 99 1010.2
20260507024951 8 182 1.6 3.2 0.00 0.43 0.00 99 1010.2
20260507024422 8 221 3.2 8.0 0.00 0.43 0.00 99 1010.2
20260507023851 8 312 3.2 6.4 0.00 0.43 0.00 99 1010.2
20260507023321 8 154 1.6 3.2 0.00 0.43 0.00 99 1010.2
20260507022751 8 154 3.2 4.8 0.00 0.46 0.00 99 1010.1
20260507022221 8 13 3.2 12.9 0.00 0.46 0.00 99 1010.1
20260507021651 8 177 4.8 11.3 0.00 0.46 0.00 99 1010.1
20260507021121 8 184 9.7 20.9 0.00 0.46 0.00 99 1010.1
20260507020551 8 169 1.6 3.2 0.00 0.46 0.00 99 1010.0
20260507015552 8 337 3.2 4.8 0.00 0.48 0.00 99 1009.9
20260507015022 8 169 4.8 9.7 0.00 0.48 0.00 99 1009.9
20260507014451 8 135 1.6 4.8 0.00 0.48 0.00 99 1009.9
20260507013921 8 135 6.4 11.3 0.00 0.48 0.00 99 1009.9
20260507013352 8 279 6.4 16.1 0.00 0.48 0.00 99 1009.9
20260507012821 8 337 4.8 11.3 0.00 0.51 0.00 99 1009.9
20260507012251 8 267 3.2 4.8 0.03 0.51 0.00 99 1009.8
20260507011721 8 175 3.2 9.7 0.03 0.51 0.00 99 1009.8
20260507011151 8 337 3.2 4.8 0.03 0.51 0.00 99 1009.8
20260507010622 8 39 3.2 8.0 0.03 0.51 0.00 99 1009.7
20260507010051 8 207 3.2 6.4 0.03 0.51 0.00 99 1009.6
20260507005521 8 350 6.4 12.9 0.03 0.51 0.00 99 1009.6
20260507004952 8 26 6.4 9.7 0.03 0.51 0.00 99 1009.5
20260507004421 8 182 3.2 6.4 0.03 0.51 0.00 99 1009.5
20260507003851 8 182 4.8 11.3 0.03 0.51 0.00 99 1009.5
20260507003321 8 179 3.2 6.4 0.03 0.56 0.00 99 1009.5
20260507002751 8 205 3.2 6.4 0.03 0.56 0.00 99 1009.5
20260507002221 8 191 3.2 8.0 0.00 0.51 0.00 99 1009.5
20260507001651 8 341 3.2 8.0 0.00 0.51 0.00 99 1009.4
20260507001121 8 150 3.2 6.4 0.00 0.56 0.00 99 1009.4
20260507000551 8 182 3.2 8.0 0.00 0.56 0.00 99 1009.4
20260507000022 8 177 3.2 6.4 0.00 0.56 0.00 99 1009.3
20260506235451 8 197 3.2 6.4 0.00 0.56 0.00 99 1009.3
20260506234922 8 187 3.2 6.4 0.00 0.56 0.00 99 1009.3
20260506234351 8 180 3.2 6.4 0.00 0.58 0.00 99 1009.3
20260506233821 8 196 4.8 8.0 0.00 0.58 0.00 99 1009.3
20260506233251 8 179 3.2 6.4 0.00 0.58 0.00 99 1009.3
20260506232721 8 180 1.6 3.2 0.00 0.58 0.00 99 1009.3
20260506232151 8 184 3.2 4.8 0.00 0.61 0.00 99 1009.3
20260506231621 8 189 3.2 3.2 0.00 0.61 0.00 99 1009.3
20260506231051 8 180 3.2 3.2 0.00 0.61 0.00 99 1009.3
20260506230521 8 180 3.2 8.0 0.00 0.61 0.00 99 1009.2
20260506225951 8 76 3.2 3.2 0.00 0.61 0.00 99 1009.1
20260506225422 8 197 1.6 3.2 0.00 0.61 0.00 99 1009.1
20260506224851 8 180 1.6 6.4 0.00 0.61 0.00 99 1009.1
20260506224321 8 182 1.6 3.2 0.00 0.66 0.00 99 1009.1
20260506223751 8 180 1.6 3.2 0.00 0.66 0.00 99 1009.0
20260506223221 8 181 3.2 6.4 0.00 0.66 0.00 99 1009.0
20260506222652 8 323 3.2 8.0 0.00 0.66 0.00 99 1008.9
20260506222121 8 185 3.2 4.8 0.00 0.69 0.00 99 1008.9
20260506221551 8 18 3.2 8.0 0.00 0.69 0.00 99 1008.8
20260506221021 8 36 1.6 6.4 0.00 0.69 0.00 99 1008.8
20260506220451 8 280 4.8 12.9 0.00 0.71 0.00 99 1008.7
20260506215922 8 119 3.2 4.8 0.03 0.71 0.00 99 1008.7
20260506215351 8 78 4.8 6.4 0.03 0.71 0.00 99 1008.7
20260506214821 9 276 6.4 12.9 0.03 0.71 0.00 99 1008.6
20260506214251 9 350 4.8 11.3 0.03 0.71 0.00 99 1008.6
20260506213722 9 2 3.2 4.8 0.03 0.71 0.00 99 1008.6
20260506213151 9 149 3.2 3.2 0.03 0.76 0.00 99 1008.5
20260506212621 9 323 1.6 4.8 0.03 0.76 0.00 99 1008.4
20260506212051 9 149 3.2 8.0 0.03 0.76 0.00 99 1008.4
20260506211521 9 327 3.2 6.4 0.03 0.79 0.00 99 1008.3
20260506210951 9 2 1.6 4.8 0.03 0.79 0.00 99 1008.3
20260506210421 9 184 4.8 16.1 0.03 0.79 0.00 99 1008.3
20260506205852 9 190 1.6 3.2 0.00 0.79 0.00 99 1008.3
20260506205321 9 207 3.2 8.0 0.00 0.79 0.00 99 1008.3
20260506204751 9 237 3.2 3.2 0.00 0.79 0.00 99 1008.3
20260506204222 9 175 1.6 3.2 0.00 0.79 0.00 99 1008.3
20260506203651 9 224 1.6 4.8 0.00 0.81 0.00 99 1008.3
20260506203121 9 36 3.2 3.2 0.00 0.81 0.00 99 1008.2
20260506202551 9 175 3.2 3.2 0.00 0.81 0.00 99 1008.1
20260506202021 9 188 3.2 4.8 0.00 0.84 0.00 99 1008.0
20260506201451 9 207 1.6 3.2 0.00 0.84 0.00 99 1008.0
20260506200921 9 189 3.2 4.8 0.00 0.89 0.00 99 1008.0
20260506200351 9 193 3.2 6.4 0.00 0.89 0.00 99 1008.0
20260506195821 9 202 3.2 3.2 0.00 0.89 0.00 99 1008.0
20260506195251 9 260 3.2 4.8 0.00 0.89 0.00 99 1007.9
20260506194721 9 179 1.6 3.2 0.00 0.89 0.00 99 1007.9
20260506194151 9 177 1.6 3.2 0.00 0.91 0.00 99 1007.9
20260506193621 9 197 3.2 4.8 0.00 0.91 0.00 99 1007.8
20260506193051 9 179 3.2 3.2 0.00 0.94 0.00 99 1007.8
20260506192522 10 192 4.8 8.0 0.00 0.94 0.00 99 1007.7
20260506191952 10 195 8.0 12.9 0.00 0.99 0.00 99 1007.6
20260506191422 10 184 4.8 9.7 0.00 0.99 0.00 99 1007.5
20260506190851 10 328 4.8 8.0 0.00 0.99 0.00 99 1007.5
20260506190322 10 188 3.2 8.0 0.03 0.99 0.00 99 1007.4
20260506185751 10 175 3.2 6.4 0.03 0.99 0.00 99 1007.3
20260506185221 10 343 3.2 6.4 0.03 0.99 0.00 99 1007.3
20260506184651 10 327 3.2 8.0 0.03 1.09 0.00 99 1007.3
20260506184121 10 120 4.8 11.3 0.03 1.09 0.00 99 1007.2
20260506183551 10 341 3.2 9.7 0.03 1.09 0.00 99 1007.2
20260506183021 10 36 6.4 11.3 0.03 1.09 0.00 99 1007.0
20260506182452 10 181 6.4 12.9 0.03 1.09 0.00 99 1007.0
20260506181921 10 356 3.2 6.4 0.03 1.09 0.00 99 1006.9
20260506181351 10 206 3.2 8.0 0.03 1.19 0.00 99 1006.9
20260506180821 10 163 4.8 9.7 0.03 1.19 0.00 99 1006.8
20260506180252 10 171 1.6 6.4 0.00 1.19 0.00 99 1006.8
20260506175721 10 277 3.2 9.7 0.00 1.19 0.00 99 1006.8
20260506175151 10 162 4.8 8.0 0.00 1.19 0.00 99 1006.7
20260506174621 10 181 4.8 8.0 0.00 1.19 0.00 99 1006.7
20260506174051 10 255 3.2 4.8 0.00 1.19 0.00 99 1006.7
20260506173521 10 219 3.2 8.0 0.00 1.19 0.00 99 1006.5
20260506172951 10 174 3.2 12.9 0.00 1.30 0.00 99 1006.5
20260506172421 10 183 1.6 6.4 0.00 1.30 0.00 99 1006.5
20260506171851 10 183 6.4 16.1 0.00 1.30 0.00 99 1006.5
20260506171321 10 212 3.2 11.3 0.00 1.30 0.00 99 1006.4
20260506170751 10 168 3.2 8.0 0.00 1.30 0.00 99 1006.4
20260506170221 10 172 3.2 4.8 0.00 1.30 0.00 99 1006.4
20260506165651 10 168 3.2 8.0 0.00 1.30 0.00 99 1006.4
20260506165121 10 200 3.2 12.9 0.00 1.30 0.00 99 1006.4
20260506164551 10 179 6.4 12.9 0.00 1.30 0.00 99 1006.3
20260506164021 10 189 4.8 11.3 0.03 1.30 0.00 99 1006.2
20260506163452 10 189 3.2 4.8 0.03 1.30 0.00 99 1006.2
20260506162921 10 188 3.2 4.8 0.03 1.30 0.00 99 1006.2
20260506162351 10 149 3.2 9.7 0.03 1.30 0.00 99 1006.1
20260506161821 10 76 3.2 6.4 0.03 1.30 0.00 99 1006.1
20260506161251 10 214 1.6 4.8 0.03 1.30 0.00 99 1006.1
20260506160721 10 189 3.2 4.8 0.03 1.30 0.00 99 1006.1
20260506160151 10 190 3.2 9.7 0.03 1.30 0.00 99 1006.1
20260506155622 10 192 3.2 8.0 0.03 1.30 0.00 99 1006.1
20260506155051 10 179 4.8 17.7 0.03 1.30 0.00 99 1006.0
20260506154522 11 194 3.2 9.7 0.00 1.30 0.00 99 1006.0
20260506153951 11 174 6.4 16.1 0.00 1.30 0.00 99 1006.0
20260506153421 11 184 3.2 9.7 0.00 1.30 0.00 99 1005.9
20260506152851 11 168 4.8 6.4 0.00 1.30 0.00 99 1005.9
20260506152321 11 164 6.4 16.1 0.00 1.30 0.00 99 1005.9
20260506151751 11 167 3.2 8.0 0.00 1.30 0.00 99 1005.9
20260506151221 11 182 4.8 11.3 0.00 1.30 0.00 99 1005.9
20260506150651 11 195 4.8 12.9 0.00 1.30 0.00 99 1005.8
20260506150121 11 105 4.8 9.7 0.03 1.30 0.00 99 1005.8
20260506145551 11 196 1.6 4.8 0.03 1.30 0.00 99 1005.8
20260506145021 11 179 3.2 9.7 0.03 1.30 0.00 99 1005.7
20260506144451 11 167 4.8 12.9 0.03 1.30 0.00 99 1005.6
20260506143922 11 182 6.4 9.7 0.03 1.30 0.00 99 1005.6
20260506143351 11 152 4.8 16.1 0.03 1.30 0.00 99 1005.6
20260506142821 11 181 6.4 14.5 0.03 1.30 0.00 99 1005.6
20260506142251 11 162 11.3 17.7 0.03 1.30 0.00 99 1005.6
20260506141721 11 182 6.4 11.3 0.03 1.30 0.00 99 1005.6
20260506141151 11 166 6.4 11.3 0.03 1.30 0.00 99 1005.6
20260506140621 11 161 4.8 9.7 0.00 1.30 0.00 99 1005.6
20260506140051 11 184 6.4 12.9 0.00 1.30 0.00 99 1005.5
20260506135521 11 193 4.8 12.9 0.00 1.30 0.00 99 1005.4
20260506134951 11 173 12.9 30.6 0.00 1.30 0.00 99 1005.4
20260506134421 11 160 8.0 17.7 0.00 1.30 0.00 99 1005.4
20260506133851 11 180 11.3 24.1 0.00 1.30 0.00 99 1005.4
20260506133321 11 164 3.2 11.3 0.03 1.30 0.00 99 1005.4
20260506132751 11 128 8.0 22.5 0.03 1.30 0.00 99 1005.4
20260506132221 11 126 4.8 12.9 0.03 1.30 0.00 99 1005.4
20260506131651 11 158 4.8 12.9 0.03 1.30 0.00 99 1005.3
20260506131121 11 137 4.8 12.9 0.03 1.30 0.00 99 1005.2
20260506130551 11 171 8.0 16.1 0.03 1.30 0.00 99 1005.2
20260506130021 11 193 9.7 22.5 0.03 1.30 0.00 99 1005.1
20260506125451 11 158 6.4 16.1 0.03 1.30 0.00 99 1005.1
20260506124921 11 181 8.0 12.9 0.03 1.30 0.00 99 1005.1
20260506124351 11 118 6.4 12.9 0.03 1.30 0.00 99 1005.0
20260506123821 11 184 4.8 9.7 0.03 1.30 0.00 99 1005.0
20260506123251 11 189 4.8 12.9 0.00 1.19 0.00 99 1005.0
20260506122721 11 203 3.2 11.3 0.00 1.19 0.00 99 1005.0
20260506122151 11 189 4.8 8.0 0.00 1.19 0.00 99 1005.0
20260506121621 12 197 4.8 6.4 0.00 1.19 0.00 99 1004.9
20260506121051 12 179 3.2 9.7 0.03 1.19 0.00 99 1004.9
20260506120521 12 158 3.2 3.2 0.03 1.19 0.00 99 1004.8
20260506115951 12 218 6.4 19.3 0.03 1.19 0.00 99 1004.8
20260506115421 12 308 6.4 12.9 0.03 1.19 0.00 99 1004.8
20260506114851 12 181 3.2 4.8 0.03 1.19 0.00 99 1004.8
20260506114321 11 331 4.8 11.3 0.03 1.19 0.00 99 1004.7
20260506113751 11 191 4.8 8.0 0.03 1.19 0.00 99 1004.7
20260506113221 11 228 3.2 4.8 0.03 1.19 0.00 99 1004.7
20260506112651 12 186 6.4 9.7 0.03 1.19 0.00 99 1004.7
20260506112121 12 182 4.8 6.4 0.03 1.19 0.00 99 1004.7
20260506111551 12 199 3.2 4.8 0.03 1.19 0.00 99 1004.5
20260506111021 12 198 3.2 9.7 0.00 1.19 0.00 99 1004.5
20260506110451 12 247 3.2 8.0 0.00 1.19 0.00 99 1004.4
20260506105921 12 340 4.8 12.9 0.03 1.19 0.00 99 1004.4
20260506105351 12 190 4.8 12.9 0.03 1.19 0.00 99 1004.4
20260506104822 12 208 8.0 17.7 0.03 1.19 0.00 99 1004.4
20260506104251 12 180 4.8 11.3 0.03 1.19 0.00 99 1004.4
20260506103721 12 304 4.8 11.3 0.03 1.19 0.00 99 1004.4
20260506103151 12 186 6.4 16.1 0.03 1.19 0.00 99 1004.4
20260506102621 12 181 4.8 6.4 0.03 1.19 0.00 99 1004.3
20260506102051 12 202 6.4 16.1 0.03 1.19 0.00 99 1004.3
20260506101522 12 159 6.4 14.5 0.03 1.19 0.00 99 1004.1
20260506100951 12 84 4.8 11.3 0.03 1.19 0.00 99 1004.1
20260506100421 12 195 4.8 9.7 0.03 1.19 0.00 99 1004.0
20260506095851 12 208 4.8 9.7 0.00 1.19 0.00 99 1004.0
20260506095321 12 135 8.0 14.5 0.00 1.19 0.00 99 1004.0
20260506094751 12 183 1.6 3.2 0.03 1.19 0.00 99 1004.0
20260506094222 12 285 3.2 4.8 0.03 1.19 0.00 99 1003.9
20260506093651 12 157 3.2 6.4 0.03 1.19 0.00 99 1003.9
20260506093121 12 117 6.4 11.3 0.03 1.19 0.00 99 1003.9
20260506092551 12 132 8.0 11.3 0.03 1.19 0.00 99 1003.9
20260506092021 12 234 6.4 16.1 0.03 1.19 0.00 99 1003.9
20260506091451 12 95 11.3 20.9 0.03 1.19 0.00 99 1003.8
20260506090921 12 18 8.0 12.9 0.03 1.19 0.00 99 1003.8
20260506090351 12 192 3.2 9.7 0.03 1.19 0.00 99 1003.8
20260506085821 12 109 1.6 4.8 0.03 1.19 0.00 99 1003.8
20260506085251 11 196 4.8 12.9 0.05 1.19 0.00 99 1003.8
20260506084721 11 284 4.8 8.0 0.03 1.19 0.00 99 1003.8
20260506084151 11 113 3.2 9.7 0.03 1.19 0.00 99 1003.8
20260506083621 11 76 3.2 19.3 0.03 1.19 0.00 99 1003.7
20260506083051 11 150 3.2 3.2 0.03 1.19 0.00 99 1003.6
20260506082521 11 148 1.6 3.2 0.03 1.19 0.00 99 1003.6
20260506081951 11 149 3.2 6.4 0.03 1.19 0.00 99 1003.5
20260506081421 11 87 3.2 6.4 0.03 1.19 0.00 99 1003.5
20260506080852 11 161 1.6 1.6 0.03 1.19 0.00 99 1003.4
20260506080321 11 99 1.6 6.4 0.03 1.19 0.00 99 1003.4
20260506073022 11 195 1.6 3.2 0.03 1.09 0.00 99 1003.3
20260506072452 11 153 1.6 6.4 0.03 1.09 0.00 99 1003.2
20260506071921 11 197 3.2 6.4 0.03 1.09 0.00 99 1003.2
20260506071351 11 226 0.0 1.6 0.05 1.09 0.00 99 1003.2
20260506070822 11 223 3.2 8.0 0.05 1.09 0.00 99 1003.2
20260506070252 11 236 1.6 3.2 0.05 1.09 0.00 99 1003.2
20260506062421 11 120 0.0 4.8 0.05 1.09 0.00 99 1003.2
20260506061851 11 261 4.8 8.0 0.05 1.09 0.00 99 1003.2
20260506061321 11 189 0.0 1.6 0.03 1.09 0.00 99 1003.2
20260506060751 11 195 0.0 0.0 0.03 1.09 0.00 99 1003.2
20260506060222 11 187 0.0 3.2 0.03 1.09 0.00 99 1003.2